Wetterdaten: Sonntag, 15.03.2015
Datum Zeit Temperatur Luftfeuchte Luftdruck Regen Wind Richtung Richtung Sonnenschein ET UV Solar Taupunkt Windchill Windben
15.03.2015 00:00 2,7 C 90 % 1027,2 hPa 0,0 l/m 0,7 km/h (0 Bft) O-NO 62 0 min 0,000 mm 0,0 UV-I 0 W/m 1,2 C 2,7 C 4,8 km/h (1 Bft)
15.03.2015 00:05 2,7 C 90 % 1027,2 hPa 0,0 l/m 0,7 km/h (0 Bft) O-NO 66 0 min 0,000 mm 0,0 UV-I 0 W/m 1,2 C 2,7 C 4,8 km/h (1 Bft)
15.03.2015 00:10 2,7 C 90 % 1027,1 hPa 0,0 l/m 1,1 km/h (1 Bft) N 355 0 min 0,000 mm 0,0 UV-I 0 W/m 1,2 C 2,7 C 4,8 km/h (1 Bft)
15.03.2015 00:15 2,7 C 90 % 1027,1 hPa 0,0 l/m 1,1 km/h (1 Bft) O 91 0 min 0,000 mm 0,0 UV-I 0 W/m 1,2 C 2,7 C 4,8 km/h (1 Bft)
15.03.2015 00:20 2,7 C 90 % 1027,1 hPa 0,0 l/m 0,2 km/h (0 Bft) O-NO 63 0 min 0,000 mm 0,0 UV-I 0 W/m 1,2 C 2,7 C 1,6 km/h (1 Bft)
15.03.2015 00:25 2,7 C 90 % 1027,1 hPa 0,0 l/m 1,5 km/h (1 Bft) O 84 0 min 0,000 mm 0,0 UV-I 0 W/m 1,2 C 2,7 C 4,8 km/h (1 Bft)
15.03.2015 00:30 2,7 C 90 % 1027,1 hPa 0,0 l/m 0,8 km/h (0 Bft) NO 54 0 min 0,000 mm 0,0 UV-I 0 W/m 1,2 C 2,7 C 9,7 km/h (2 Bft)
15.03.2015 00:35 2,7 C 90 % 1027,0 hPa 0,0 l/m 3,4 km/h (1 Bft) O-NO 69 0 min 0,000 mm 0,0 UV-I 0 W/m 1,2 C 2,7 C 12,9 km/h (3 Bft)
15.03.2015 00:40 2,7 C 90 % 1027,1 hPa 0,0 l/m 0,2 km/h (0 Bft) O-NO 69 0 min 0,000 mm 0,0 UV-I 0 W/m 1,2 C 2,7 C 1,6 km/h (1 Bft)
15.03.2015 00:45 2,7 C 90 % 1027,1 hPa 0,0 l/m 0,7 km/h (0 Bft) O-NO 59 0 min 0,000 mm 0,0 UV-I 0 W/m 1,2 C 2,7 C 4,8 km/h (1 Bft)
15.03.2015 00:50 2,7 C 90 % 1027,1 hPa 0,0 l/m 0,0 km/h (0 Bft) O-NO 59 0 min 0,000 mm 0,0 UV-I 0 W/m 1,2 C 2,7 C 1,6 km/h (1 Bft)
15.03.2015 00:55 2,7 C 90 % 1027,1 hPa 0,0 l/m 0,4 km/h (0 Bft) O 89 0 min 0,000 mm 0,0 UV-I 0 W/m 1,2 C 2,7 C 3,2 km/h (1 Bft)
15.03.2015 01:00 2,7 C 90 % 1027,0 hPa 0,0 l/m 0,1 km/h (0 Bft) O-NO 74 0 min 0,000 mm 0,0 UV-I 0 W/m 1,2 C 2,7 C 1,6 km/h (1 Bft)
15.03.2015 01:05 2,7 C 90 % 1027,1 hPa 0,0 l/m 1,5 km/h (1 Bft) N-NO 15 0 min 0,000 mm 0,0 UV-I 0 W/m 1,2 C 2,7 C 4,8 km/h (1 Bft)
15.03.2015 01:10 2,7 C 90 % 1027,1 hPa 0,0 l/m 2,5 km/h (1 Bft) NO 40 0 min 0,000 mm 0,0 UV-I 0 W/m 1,2 C 2,7 C 11,3 km/h (2 Bft)
15.03.2015 01:15 2,8 C 90 % 1027,0 hPa 0,0 l/m 3,0 km/h (1 Bft) NO 55 0 min 0,000 mm 0,0 UV-I 0 W/m 1,3 C 2,8 C 8,0 km/h (2 Bft)
15.03.2015 01:20 2,8 C 90 % 1027,0 hPa 0,0 l/m 0,9 km/h (0 Bft) NO 38 0 min 0,000 mm 0,0 UV-I 0 W/m 1,3 C 2,8 C 4,8 km/h (1 Bft)
15.03.2015 01:25 2,8 C 90 % 1027,0 hPa 0,0 l/m 1,2 km/h (1 Bft) NO 38 0 min 0,000 mm 0,0 UV-I 0 W/m 1,3 C 2,8 C 6,4 km/h (2 Bft)
15.03.2015 01:30 2,8 C 91 % 1026,9 hPa 0,0 l/m 1,0 km/h (0 Bft) O-NO 63 0 min 0,000 mm 0,0 UV-I 0 W/m 1,5 C 2,8 C 6,4 km/h (2 Bft)
15.03.2015 01:35 2,8 C 91 % 1026,9 hPa 0,0 l/m 1,5 km/h (1 Bft) N-NO 26 0 min 0,000 mm 0,0 UV-I 0 W/m 1,5 C 2,8 C 4,8 km/h (1 Bft)
15.03.2015 01:40 2,8 C 91 % 1026,9 hPa 0,0 l/m 0,5 km/h (0 Bft) O-NO 69 0 min 0,000 mm 0,0 UV-I 0 W/m 1,5 C 2,8 C 3,2 km/h (1 Bft)
15.03.2015 01:45 2,8 C 91 % 1026,9 hPa 0,0 l/m 0,7 km/h (0 Bft) N-NO 25 0 min 0,000 mm 0,0 UV-I 0 W/m 1,5 C 2,8 C 6,4 km/h (2 Bft)
15.03.2015 01:50 2,8 C 91 % 1026,9 hPa 0,0 l/m 0,6 km/h (0 Bft) NO 50 0 min 0,000 mm 0,0 UV-I 0 W/m 1,5 C 2,8 C 4,8 km/h (1 Bft)
15.03.2015 01:55 2,8 C 91 % 1026,9 hPa 0,0 l/m 0,1 km/h (0 Bft) N-NO 30 0 min 0,000 mm 0,0 UV-I 0 W/m 1,5 C 2,8 C 1,6 km/h (1 Bft)
15.03.2015 02:00 2,7 C 91 % 1026,9 hPa 0,0 l/m 0,5 km/h (0 Bft) N-NO 21 0 min 0,000 mm 0,0 UV-I 0 W/m 1,4 C 2,7 C 6,4 km/h (2 Bft)
15.03.2015 02:05 2,7 C 91 % 1026,9 hPa 0,0 l/m 0,5 km/h (0 Bft) O-NO 63 0 min 0,000 mm 0,0 UV-I 0 W/m 1,4 C 2,7 C 8,0 km/h (2 Bft)
15.03.2015 02:10 2,7 C 91 % 1026,8 hPa 0,0 l/m 1,7 km/h (1 Bft) NO 44 0 min 0,000 mm 0,0 UV-I 0 W/m 1,4 C 2,7 C 11,3 km/h (2 Bft)
15.03.2015 02:15 2,7 C 91 % 1026,8 hPa 0,0 l/m 1,1 km/h (1 Bft) NO 42 0 min 0,000 mm 0,0 UV-I 0 W/m 1,4 C 2,7 C 6,4 km/h (2 Bft)
15.03.2015 02:20 2,7 C 92 % 1026,7 hPa 0,0 l/m 0,2 km/h (0 Bft) N-NO 17 0 min 0,000 mm 0,0 UV-I 0 W/m 1,5 C 2,7 C 4,8 km/h (1 Bft)
15.03.2015 02:25 2,7 C 92 % 1026,7 hPa 0,0 l/m 0,3 km/h (0 Bft) O-NO 63 0 min 0,000 mm 0,0 UV-I 0 W/m 1,5 C 2,7 C 3,2 km/h (1 Bft)
15.03.2015 02:30 2,7 C 92 % 1026,7 hPa 0,0 l/m 0,1 km/h (0 Bft) O-NO 63 0 min 0,000 mm 0,0 UV-I 0 W/m 1,5 C 2,7 C 3,2 km/h (1 Bft)
15.03.2015 02:35 2,7 C 92 % 1026,6 hPa 0,0 l/m 0,2 km/h (0 Bft) O-NO 59 0 min 0,000 mm 0,0 UV-I 0 W/m 1,5 C 2,7 C 3,2 km/h (1 Bft)
15.03.2015 02:40 2,7 C 92 % 1026,5 hPa 0,0 l/m 0,1 km/h (0 Bft) O-NO 71 0 min 0,000 mm 0,0 UV-I 0 W/m 1,5 C 2,7 C 4,8 km/h (1 Bft)
15.03.2015 02:45 2,7 C 92 % 1026,5 hPa 0,0 l/m 0,6 km/h (0 Bft) NO 50 0 min 0,000 mm 0,0 UV-I 0 W/m 1,5 C 2,7 C 4,8 km/h (1 Bft)
15.03.2015 02:50 2,7 C 92 % 1026,5 hPa 0,0 l/m 0,4 km/h (0 Bft) N-NO 31 0 min 0,000 mm 0,0 UV-I 0 W/m 1,5 C 2,7 C 3,2 km/h (1 Bft)
15.03.2015 02:55 2,7 C 92 % 1026,4 hPa 0,0 l/m 0,6 km/h (0 Bft) O-NO 75 0 min 0,000 mm 0,0 UV-I 0 W/m 1,5 C 2,7 C 4,8 km/h (1 Bft)
15.03.2015 03:00 2,7 C 92 % 1026,4 hPa 0,0 l/m 1,3 km/h (1 Bft) NO 41 0 min 0,000 mm 0,0 UV-I 0 W/m 1,5 C 2,7 C 11,3 km/h (2 Bft)
15.03.2015 03:05 2,7 C 92 % 1026,3 hPa 0,0 l/m 0,6 km/h (0 Bft) O-NO 61 0 min 0,000 mm 0,0 UV-I 0 W/m 1,5 C 2,7 C 4,8 km/h (1 Bft)
15.03.2015 03:10 2,7 C 92 % 1026,2 hPa 0,0 l/m 0,7 km/h (0 Bft) O-NO 59 0 min 0,000 mm 0,0 UV-I 0 W/m 1,5 C 2,7 C 6,4 km/h (2 Bft)
15.03.2015 03:15 2,8 C 92 % 1026,2 hPa 0,0 l/m 1,2 km/h (1 Bft) N-NO 23 0 min 0,000 mm 0,0 UV-I 0 W/m 1,6 C 2,8 C 4,8 km/h (1 Bft)
15.03.2015 03:20 2,8 C 92 % 1026,2 hPa 0,0 l/m 0,6 km/h (0 Bft) NO 47 0 min 0,000 mm 0,0 UV-I 0 W/m 1,6 C 2,8 C 4,8 km/h (1 Bft)
15.03.2015 03:25 2,8 C 92 % 1026,1 hPa 0,0 l/m 0,3 km/h (0 Bft) NO 42 0 min 0,000 mm 0,0 UV-I 0 W/m 1,6 C 2,8 C 4,8 km/h (1 Bft)
15.03.2015 03:30 2,8 C 92 % 1026,1 hPa 0,0 l/m 0,6 km/h (0 Bft) O-NO 75 0 min 0,000 mm 0,0 UV-I 0 W/m 1,6 C 2,8 C 4,8 km/h (1 Bft)
15.03.2015 03:35 2,8 C 92 % 1026,1 hPa 0,0 l/m 0,3 km/h (0 Bft) O-NO 61 0 min 0,000 mm 0,0 UV-I 0 W/m 1,6 C 2,8 C 4,8 km/h (1 Bft)
15.03.2015 03:40 2,8 C 92 % 1026,2 hPa 0,0 l/m 1,0 km/h (0 Bft) O-NO 59 0 min 0,000 mm 0,0 UV-I 0 W/m 1,6 C 2,8 C 4,8 km/h (1 Bft)
15.03.2015 03:45 2,8 C 92 % 1026,2 hPa 0,0 l/m 1,5 km/h (1 Bft) NO 52 0 min 0,000 mm 0,0 UV-I 0 W/m 1,6 C 2,8 C 11,3 km/h (2 Bft)
15.03.2015 03:50 2,8 C 92 % 1026,2 hPa 0,0 l/m 0,5 km/h (0 Bft) NO 42 0 min 0,000 mm 0,0 UV-I 0 W/m 1,6 C 2,8 C 4,8 km/h (1 Bft)
15.03.2015 03:55 2,8 C 92 % 1026,2 hPa 0,0 l/m 1,0 km/h (0 Bft) N-NO 13 0 min 0,000 mm 0,0 UV-I 0 W/m 1,6 C 2,8 C 6,4 km/h (2 Bft)
15.03.2015 04:00 2,8 C 92 % 1026,2 hPa 0,0 l/m 1,1 km/h (1 Bft) NO 50 0 min 0,000 mm 0,0 UV-I 0 W/m 1,6 C 2,8 C 4,8 km/h (1 Bft)
15.03.2015 04:05 2,8 C 92 % 1026,2 hPa 0,0 l/m 0,6 km/h (0 Bft) O-NO 58 0 min 0,000 mm 0,0 UV-I 0 W/m 1,6 C 2,8 C 3,2 km/h (1 Bft)
15.03.2015 04:10 2,8 C 92 % 1026,2 hPa 0,0 l/m 1,0 km/h (0 Bft) N-NO 20 0 min 0,000 mm 0,0 UV-I 0 W/m 1,6 C 2,8 C 4,8 km/h (1 Bft)
15.03.2015 04:15 2,8 C 92 % 1026,2 hPa 0,0 l/m 3,0 km/h (1 Bft) N-NO 33 0 min 0,000 mm 0,0 UV-I 0 W/m 1,6 C 2,8 C 11,3 km/h (2 Bft)
15.03.2015 04:20 2,8 C 91 % 1026,2 hPa 0,0 l/m 2,4 km/h (1 Bft) O 88 0 min 0,000 mm 0,0 UV-I 0 W/m 1,5 C 2,8 C 9,7 km/h (2 Bft)
15.03.2015 04:25 2,9 C 91 % 1026,1 hPa 0,0 l/m 1,9 km/h (1 Bft) O-NO 67 0 min 0,000 mm 0,0 UV-I 0 W/m 1,6 C 2,9 C 11,3 km/h (2 Bft)
15.03.2015 04:30 2,9 C 91 % 1026,1 hPa 0,0 l/m 1,0 km/h (0 Bft) NO 38 0 min 0,000 mm 0,0 UV-I 0 W/m 1,6 C 2,9 C 8,0 km/h (2 Bft)
15.03.2015 04:35 2,9 C 91 % 1026,2 hPa 0,0 l/m 2,8 km/h (1 Bft) NO 43 0 min 0,000 mm 0,0 UV-I 0 W/m 1,6 C 2,9 C 8,0 km/h (2 Bft)
15.03.2015 04:40 2,9 C 91 % 1026,1 hPa 0,0 l/m 4,2 km/h (1 Bft) N-NO 20 0 min 0,000 mm 0,0 UV-I 0 W/m 1,6 C 2,9 C 16,1 km/h (3 Bft)
15.03.2015 04:45 2,9 C 91 % 1026,1 hPa 0,0 l/m 3,1 km/h (1 Bft) N-NO 22 0 min 0,000 mm 0,0 UV-I 0 W/m 1,6 C 2,9 C 16,1 km/h (3 Bft)
15.03.2015 04:50 2,9 C 91 % 1026,1 hPa 0,2 l/m 4,1 km/h (1 Bft) O-NO 60 0 min 0,000 mm 0,0 UV-I 0 W/m 1,6 C 2,9 C 12,9 km/h (3 Bft)
15.03.2015 04:55 2,8 C 91 % 1026,1 hPa 0,0 l/m 0,6 km/h (0 Bft) N-NO 13 0 min 0,000 mm 0,0 UV-I 0 W/m 1,5 C 2,8 C 3,2 km/h (1 Bft)
15.03.2015 05:00 2,8 C 91 % 1026,1 hPa 0,0 l/m 0,9 km/h (0 Bft) O-NO 63 0 min 0,000 mm 0,0 UV-I 0 W/m 1,5 C 2,8 C 6,4 km/h (2 Bft)
15.03.2015 05:05 2,8 C 91 % 1026,1 hPa 0,0 l/m 1,5 km/h (1 Bft) NO 56 0 min 0,000 mm 0,0 UV-I 0 W/m 1,5 C 2,8 C 6,4 km/h (2 Bft)
15.03.2015 05:10 2,8 C 91 % 1026,0 hPa 0,0 l/m 1,6 km/h (1 Bft) O-NO 60 0 min 0,000 mm 0,0 UV-I 0 W/m 1,5 C 2,8 C 12,9 km/h (3 Bft)
15.03.2015 05:15 2,8 C 92 % 1026,1 hPa 0,0 l/m 2,8 km/h (1 Bft) O-NO 70 0 min 0,000 mm 0,0 UV-I 0 W/m 1,6 C 2,8 C 12,9 km/h (3 Bft)
15.03.2015 05:20 2,8 C 92 % 1026,0 hPa 0,0 l/m 2,3 km/h (1 Bft) N-NO 29 0 min 0,000 mm 0,0 UV-I 0 W/m 1,6 C 2,8 C 8,0 km/h (2 Bft)
15.03.2015 05:25 2,8 C 92 % 1026,0 hPa 0,0 l/m 0,8 km/h (0 Bft) O-NO 65 0 min 0,000 mm 0,0 UV-I 0 W/m 1,6 C 2,8 C 4,8 km/h (1 Bft)
15.03.2015 05:30 2,8 C 92 % 1026,0 hPa 0,0 l/m 0,8 km/h (0 Bft) O-NO 59 0 min 0,000 mm 0,0 UV-I 0 W/m 1,6 C 2,8 C 3,2 km/h (1 Bft)
15.03.2015 05:35 2,8 C 92 % 1026,0 hPa 0,0 l/m 1,8 km/h (1 Bft) O-NO 64 0 min 0,000 mm 0,0 UV-I 0 W/m 1,6 C 2,8 C 8,0 km/h (2 Bft)
15.03.2015 05:40 2,8 C 92 % 1026,0 hPa 0,2 l/m 2,0 km/h (1 Bft) NO 51 0 min 0,000 mm 0,0 UV-I 0 W/m 1,6 C 2,8 C 8,0 km/h (2 Bft)
15.03.2015 05:45 2,7 C 92 % 1026,1 hPa 0,0 l/m 3,8 km/h (1 Bft) N-NO 25 0 min 0,000 mm 0,0 UV-I 0 W/m 1,5 C 2,7 C 16,1 km/h (3 Bft)
15.03.2015 05:50 2,7 C 92 % 1026,1 hPa 0,0 l/m 3,1 km/h (1 Bft) O-NO 65 0 min 0,000 mm 0,0 UV-I 0 W/m 1,5 C 2,7 C 8,0 km/h (2 Bft)
15.03.2015 05:55 2,7 C 92 % 1026,2 hPa 0,0 l/m 1,3 km/h (1 Bft) O-NO 74 0 min 0,000 mm 0,0 UV-I 0 W/m 1,5 C 2,7 C 4,8 km/h (1 Bft)
15.03.2015 06:00 2,7 C 92 % 1026,1 hPa 0,0 l/m 2,6 km/h (1 Bft) NO 44 0 min 0,000 mm 0,0 UV-I 0 W/m 1,5 C 2,7 C 11,3 km/h (2 Bft)
15.03.2015 06:05 2,6 C 92 % 1026,1 hPa 0,0 l/m 2,0 km/h (1 Bft) O-NO 63 0 min 0,000 mm 0,0 UV-I 0 W/m 1,4 C 2,6 C 8,0 km/h (2 Bft)
15.03.2015 06:10 2,6 C 92 % 1026,1 hPa 0,0 l/m 5,8 km/h (2 Bft) N 5 0 min 0,000 mm 0,0 UV-I 0 W/m 1,4 C 2,6 C 14,5 km/h (3 Bft)
15.03.2015 06:15 2,6 C 93 % 1026,1 hPa 0,2 l/m 1,5 km/h (1 Bft) NO 40 0 min 0,000 mm 0,0 UV-I 0 W/m 1,6 C 2,6 C 4,8 km/h (1 Bft)
15.03.2015 06:20 2,6 C 92 % 1026,1 hPa 0,0 l/m 0,3 km/h (0 Bft) O-NO 61 0 min 0,000 mm 0,0 UV-I 0 W/m 1,4 C 2,6 C 4,8 km/h (1 Bft)
15.03.2015 06:25 2,6 C 93 % 1026,1 hPa 0,0 l/m 0,9 km/h (0 Bft) O-NO 62 0 min 0,000 mm 0,0 UV-I 0 W/m 1,6 C 2,6 C 3,2 km/h (1 Bft)
15.03.2015 06:30 2,5 C 93 % 1026,2 hPa 0,0 l/m 1,1 km/h (1 Bft) NO 35 0 min 0,000 mm 0,0 UV-I 0 W/m 1,5 C 2,5 C 6,4 km/h (2 Bft)
15.03.2015 06:35 2,5 C 93 % 1026,2 hPa 0,0 l/m 1,4 km/h (1 Bft) N-NO 28 0 min 0,000 mm 0,0 UV-I 0 W/m 1,5 C 2,5 C 4,8 km/h (1 Bft)
15.03.2015 06:40 2,4 C 93 % 1026,2 hPa 0,0 l/m 3,6 km/h (1 Bft) NO 51 0 min 0,000 mm 0,0 UV-I 0 W/m 1,4 C 2,4 C 12,9 km/h (3 Bft)
15.03.2015 06:45 2,4 C 93 % 1026,2 hPa 0,0 l/m 2,3 km/h (1 Bft) O-NO 65 0 min 0,000 mm 0,0 UV-I 0 W/m 1,4 C 2,4 C 6,4 km/h (2 Bft)
15.03.2015 06:50 2,4 C 93 % 1026,2 hPa 0,0 l/m 1,0 km/h (0 Bft) NO 56 0 min 0,000 mm 0,0 UV-I 0 W/m 1,4 C 2,4 C 3,2 km/h (1 Bft)
15.03.2015 06:55 2,4 C 93 % 1026,2 hPa 0,0 l/m 0,8 km/h (0 Bft) O-NO 72 0 min 0,000 mm 0,0 UV-I 3 W/m 1,4 C 2,4 C 4,8 km/h (1 Bft)
15.03.2015 07:00 2,4 C 93 % 1026,2 hPa 0,0 l/m 3,0 km/h (1 Bft) NO 55 0 min 0,000 mm 0,0 UV-I 7 W/m 1,4 C 2,4 C 12,9 km/h (3 Bft)
15.03.2015 07:05 2,4 C 93 % 1026,3 hPa 0,0 l/m 0,4 km/h (0 Bft) N-NO 32 0 min 0,000 mm 0,0 UV-I 11 W/m 1,4 C 2,4 C 3,2 km/h (1 Bft)
15.03.2015 07:10 2,5 C 93 % 1026,3 hPa 0,2 l/m 0,6 km/h (0 Bft) N-NO 33 0 min 0,000 mm 0,0 UV-I 13 W/m 1,5 C 2,5 C 4,8 km/h (1 Bft)
15.03.2015 07:15 2,5 C 93 % 1026,3 hPa 0,0 l/m 3,2 km/h (1 Bft) O 81 0 min 0,000 mm 0,0 UV-I 15 W/m 1,5 C 2,5 C 11,3 km/h (2 Bft)
15.03.2015 07:20 2,6 C 93 % 1026,4 hPa 0,0 l/m 3,0 km/h (1 Bft) NO 35 0 min 0,000 mm 0,0 UV-I 16 W/m 1,6 C 2,6 C 11,3 km/h (2 Bft)
15.03.2015 07:25 2,6 C 93 % 1026,3 hPa 0,0 l/m 2,7 km/h (1 Bft) W 267 0 min 0,000 mm 0,0 UV-I 20 W/m 1,6 C 2,6 C 12,9 km/h (3 Bft)
15.03.2015 07:30 2,7 C 93 % 1026,4 hPa 0,0 l/m 3,1 km/h (1 Bft) NO 48 0 min 0,000 mm 0,0 UV-I 23 W/m 1,7 C 2,7 C 11,3 km/h (2 Bft)
15.03.2015 07:35 2,7 C 93 % 1026,4 hPa 0,0 l/m 5,0 km/h (1 Bft) N-NO 26 0 min 0,000 mm 0,0 UV-I 25 W/m 1,7 C 2,7 C 17,7 km/h (3 Bft)
15.03.2015 07:40 2,8 C 93 % 1026,5 hPa 0,0 l/m 4,8 km/h (1 Bft) O-NO 72 0 min 0,000 mm 0,0 UV-I 24 W/m 1,8 C 2,8 C 14,5 km/h (3 Bft)
15.03.2015 07:45 2,8 C 93 % 1026,5 hPa 0,0 l/m 2,7 km/h (1 Bft) O-NO 62 0 min 0,000 mm 0,0 UV-I 31 W/m 1,8 C 2,8 C 12,9 km/h (3 Bft)
15.03.2015 07:50 2,8 C 93 % 1026,5 hPa 0,0 l/m 3,6 km/h (1 Bft) NO 51 0 min 0,000 mm 0,0 UV-I 35 W/m 1,8 C 2,8 C 12,9 km/h (3 Bft)
15.03.2015 07:55 2,9 C 93 % 1026,5 hPa 0,0 l/m 4,2 km/h (1 Bft) NO 45 0 min 0,000 mm 0,0 UV-I 36 W/m 1,9 C 2,9 C 12,9 km/h (3 Bft)
15.03.2015 08:00 2,9 C 93 % 1026,5 hPa 0,0 l/m 3,4 km/h (1 Bft) NO 38 0 min 0,000 mm 0,0 UV-I 46 W/m 1,9 C 2,9 C 12,9 km/h (3 Bft)
15.03.2015 08:05 3,1 C 93 % 1026,6 hPa 0,0 l/m 2,1 km/h (1 Bft) NO 40 0 min 0,000 mm 0,0 UV-I 43 W/m 2,1 C 3,1 C 8,0 km/h (2 Bft)
15.03.2015 08:10 3,1 C 93 % 1026,5 hPa 0,0 l/m 2,7 km/h (1 Bft) NO 48 0 min 0,000 mm 0,0 UV-I 39 W/m 2,1 C 3,1 C 11,3 km/h (2 Bft)
15.03.2015 08:15 3,2 C 93 % 1026,5 hPa 0,0 l/m 4,1 km/h (1 Bft) N-NO 23 0 min 0,000 mm 0,0 UV-I 37 W/m 2,2 C 3,2 C 14,5 km/h (3 Bft)
15.03.2015 08:20 3,2 C 92 % 1026,6 hPa 0,0 l/m 2,0 km/h (1 Bft) N-NO 27 0 min 0,000 mm 0,0 UV-I 34 W/m 2,0 C 3,2 C 8,0 km/h (2 Bft)
15.03.2015 08:25 3,2 C 92 % 1026,6 hPa 0,0 l/m 3,3 km/h (1 Bft) N-NO 23 0 min 0,000 mm 0,0 UV-I 31 W/m 2,0 C 3,2 C 9,7 km/h (2 Bft)
15.03.2015 08:30 3,2 C 92 % 1026,6 hPa 0,0 l/m 3,8 km/h (1 Bft) NO 40 0 min 0,000 mm 0,0 UV-I 25 W/m 2,0 C 3,2 C 12,9 km/h (3 Bft)
15.03.2015 08:35 3,2 C 92 % 1026,6 hPa 0,0 l/m 4,8 km/h (1 Bft) O-NO 76 0 min 0,000 mm 0,0 UV-I 26 W/m 2,0 C 3,2 C 16,1 km/h (3 Bft)
15.03.2015 08:40 3,2 C 92 % 1026,6 hPa 0,0 l/m 7,2 km/h (2 Bft) N 355 0 min 0,000 mm 0,0 UV-I 28 W/m 2,0 C 2,4 C 16,1 km/h (3 Bft)
15.03.2015 08:45 3,2 C 92 % 1026,7 hPa 0,0 l/m 3,3 km/h (1 Bft) O-NO 57 0 min 0,000 mm 0,0 UV-I 26 W/m 2,0 C 3,2 C 12,9 km/h (3 Bft)
15.03.2015 08:50 3,2 C 92 % 1026,7 hPa 0,0 l/m 1,8 km/h (1 Bft) N-NO 15 0 min 0,000 mm 0,0 UV-I 25 W/m 2,0 C 3,2 C 8,0 km/h (2 Bft)
15.03.2015 08:55 3,2 C 92 % 1026,8 hPa 0,0 l/m 3,6 km/h (1 Bft) NO 36 0 min 0,000 mm 0,0 UV-I 25 W/m 2,0 C 3,2 C 11,3 km/h (2 Bft)
15.03.2015 09:00 3,2 C 92 % 1026,7 hPa 0,0 l/m 4,3 km/h (1 Bft) NO 44 0 min 0,025 mm 0,0 UV-I 28 W/m 2,0 C 3,2 C 12,9 km/h (3 Bft)
15.03.2015 09:05 3,2 C 91 % 1026,7 hPa 0,0 l/m 6,4 km/h (2 Bft) NO 40 0 min 0,000 mm 0,0 UV-I 30 W/m 1,9 C 3,2 C 16,1 km/h (3 Bft)
15.03.2015 09:10 3,2 C 91 % 1026,7 hPa 0,0 l/m 2,5 km/h (1 Bft) O-NO 78 0 min 0,000 mm 0,0 UV-I 31 W/m 1,9 C 3,2 C 9,7 km/h (2 Bft)
15.03.2015 09:15 3,3 C 91 % 1026,7 hPa 0,0 l/m 1,7 km/h (1 Bft) NO 46 0 min 0,000 mm 0,0 UV-I 41 W/m 2,0 C 3,3 C 8,0 km/h (2 Bft)
15.03.2015 09:20 3,3 C 91 % 1026,7 hPa 0,0 l/m 2,1 km/h (1 Bft) NO 49 0 min 0,000 mm 0,0 UV-I 51 W/m 2,0 C 3,3 C 8,0 km/h (2 Bft)
15.03.2015 09:25 3,3 C 91 % 1026,7 hPa 0,0 l/m 3,2 km/h (1 Bft) NO 50 0 min 0,000 mm 0,0 UV-I 54 W/m 2,0 C 3,3 C 11,3 km/h (2 Bft)
15.03.2015 09:30 3,3 C 91 % 1026,7 hPa 0,0 l/m 3,8 km/h (1 Bft) NO 48 0 min 0,000 mm 0,0 UV-I 64 W/m 2,0 C 3,3 C 11,3 km/h (2 Bft)
15.03.2015 09:35 3,4 C 91 % 1026,6 hPa 0,0 l/m 5,0 km/h (1 Bft) NO 38 0 min 0,000 mm 0,4 UV-I 85 W/m 2,1 C 3,4 C 12,9 km/h (3 Bft)
15.03.2015 09:40 3,5 C 91 % 1026,6 hPa 0,0 l/m 5,1 km/h (1 Bft) NO 48 0 min 0,000 mm 0,5 UV-I 94 W/m 2,2 C 3,5 C 14,5 km/h (3 Bft)
15.03.2015 09:45 3,6 C 91 % 1026,6 hPa 0,0 l/m 4,1 km/h (1 Bft) O-NO 66 0 min 0,000 mm 0,5 UV-I 107 W/m 2,3 C 3,6 C 17,7 km/h (3 Bft)
15.03.2015 09:50 3,7 C 91 % 1026,5 hPa 0,0 l/m 7,1 km/h (2 Bft) O-NO 62 0 min 0,000 mm 0,5 UV-I 111 W/m 2,4 C 3,1 C 17,7 km/h (3 Bft)
15.03.2015 09:55 3,7 C 91 % 1026,5 hPa 0,0 l/m 3,9 km/h (1 Bft) O 90 0 min 0,000 mm 0,5 UV-I 93 W/m 2,4 C 3,7 C 12,9 km/h (3 Bft)
15.03.2015 10:00 3,8 C 91 % 1026,5 hPa 0,0 l/m 4,3 km/h (1 Bft) O-NO 64 0 min 0,000 mm 0,5 UV-I 97 W/m 2,5 C 3,8 C 11,3 km/h (2 Bft)
15.03.2015 10:05 3,8 C 91 % 1026,4 hPa 0,0 l/m 2,1 km/h (1 Bft) NO 51 0 min 0,026 mm 0,6 UV-I 113 W/m 2,5 C 3,8 C 6,4 km/h (2 Bft)
15.03.2015 10:10 3,9 C 90 % 1026,4 hPa 0,0 l/m 5,9 km/h (2 Bft) N-NO 17 0 min 0,000 mm 0,5 UV-I 92 W/m 2,4 C 3,9 C 17,7 km/h (3 Bft)
15.03.2015 10:15 3,9 C 90 % 1026,3 hPa 0,0 l/m 5,3 km/h (1 Bft) N-NO 15 0 min 0,000 mm 0,4 UV-I 77 W/m 2,4 C 3,9 C 12,9 km/h (3 Bft)
15.03.2015 10:20 3,8 C 90 % 1026,4 hPa 0,0 l/m 6,2 km/h (2 Bft) NO 51 0 min 0,000 mm 0,4 UV-I 69 W/m 2,3 C 3,8 C 14,5 km/h (3 Bft)
15.03.2015 10:25 3,8 C 90 % 1026,4 hPa 0,0 l/m 6,9 km/h (2 Bft) N-NO 31 0 min 0,000 mm 0,3 UV-I 74 W/m 2,3 C 3,3 C 16,1 km/h (3 Bft)
15.03.2015 10:30 3,9 C 90 % 1026,4 hPa 0,0 l/m 6,4 km/h (2 Bft) NO 38 0 min 0,000 mm 0,6 UV-I 101 W/m 2,4 C 3,9 C 17,7 km/h (3 Bft)
15.03.2015 10:35 3,9 C 90 % 1026,3 hPa 0,0 l/m 8,1 km/h (2 Bft) NO 36 0 min 0,000 mm 0,6 UV-I 111 W/m 2,4 C 2,4 C 19,3 km/h (3 Bft)
15.03.2015 10:40 4,0 C 90 % 1026,3 hPa 0,0 l/m 4,8 km/h (1 Bft) O-NO 57 0 min 0,000 mm 0,6 UV-I 116 W/m 2,5 C 4,0 C 12,9 km/h (3 Bft)
15.03.2015 10:45 4,1 C 90 % 1026,4 hPa 0,0 l/m 8,7 km/h (2 Bft) N-NO 28 0 min 0,000 mm 0,6 UV-I 118 W/m 2,6 C 2,1 C 19,3 km/h (3 Bft)
15.03.2015 10:50 4,1 C 89 % 1026,3 hPa 0,0 l/m 5,5 km/h (1 Bft) NO 46 0 min 0,000 mm 0,6 UV-I 97 W/m 2,5 C 4,1 C 17,7 km/h (3 Bft)
15.03.2015 10:55 4,1 C 89 % 1026,2 hPa 0,0 l/m 7,4 km/h (2 Bft) NO 35 0 min 0,000 mm 0,5 UV-I 97 W/m 2,5 C 3,2 C 20,9 km/h (4 Bft)
15.03.2015 11:00 4,2 C 89 % 1026,3 hPa 0,0 l/m 5,5 km/h (1 Bft) O-NO 57 0 min 0,000 mm 0,5 UV-I 84 W/m 2,6 C 4,2 C 12,9 km/h (3 Bft)
15.03.2015 11:05 4,2 C 89 % 1026,2 hPa 0,0 l/m 5,9 km/h (2 Bft) O-NO 61 0 min 0,051 mm 0,5 UV-I 85 W/m 2,6 C 4,2 C 16,1 km/h (3 Bft)
15.03.2015 11:10 4,2 C 90 % 1026,1 hPa 0,0 l/m 3,5 km/h (1 Bft) O-NO 78 0 min 0,000 mm 0,5 UV-I 73 W/m 2,7 C 4,2 C 11,3 km/h (2 Bft)
15.03.2015 11:15 4,3 C 90 % 1026,1 hPa 0,0 l/m 1,9 km/h (1 Bft) N 5 0 min 0,000 mm 0,5 UV-I 81 W/m 2,8 C 4,3 C 6,4 km/h (2 Bft)
15.03.2015 11:20 4,2 C 89 % 1026,1 hPa 0,0 l/m 5,3 km/h (1 Bft) N-NO 22 0 min 0,000 mm 0,5 UV-I 81 W/m 2,6 C 4,2 C 16,1 km/h (3 Bft)
15.03.2015 11:25 4,2 C 89 % 1026,1 hPa 0,0 l/m 5,0 km/h (1 Bft) O 86 0 min 0,000 mm 0,6 UV-I 101 W/m 2,6 C 4,2 C 14,5 km/h (3 Bft)
15.03.2015 11:30 4,2 C 89 % 1026,0 hPa 0,0 l/m 6,9 km/h (2 Bft) O-NO 59 0 min 0,000 mm 0,7 UV-I 128 W/m 2,6 C 3,8 C 14,5 km/h (3 Bft)
15.03.2015 11:35 4,2 C 89 % 1026,0 hPa 0,0 l/m 7,9 km/h (2 Bft) O-NO 69 0 min 0,000 mm 0,8 UV-I 137 W/m 2,6 C 2,8 C 16,1 km/h (3 Bft)
15.03.2015 11:40 4,3 C 89 % 1026,0 hPa 0,0 l/m 5,9 km/h (2 Bft) NO 51 0 min 0,000 mm 0,7 UV-I 111 W/m 2,7 C 4,3 C 12,9 km/h (3 Bft)
15.03.2015 11:45 4,3 C 89 % 1025,9 hPa 0,0 l/m 5,9 km/h (2 Bft) O-NO 71 0 min 0,000 mm 0,0 UV-I 53 W/m 2,7 C 4,3 C 14,5 km/h (3 Bft)
15.03.2015 11:50 4,3 C 89 % 1025,9 hPa 0,0 l/m 3,7 km/h (1 Bft) NO 40 0 min 0,000 mm 0,1 UV-I 53 W/m 2,7 C 4,3 C 11,3 km/h (2 Bft)
15.03.2015 11:55 4,3 C 89 % 1025,9 hPa 0,0 l/m 2,5 km/h (1 Bft) O 80 0 min 0,000 mm 0,6 UV-I 95 W/m 2,7 C 4,3 C 8,0 km/h (2 Bft)
15.03.2015 12:00 4,3 C 88 % 1025,9 hPa 0,0 l/m 5,1 km/h (1 Bft) NO 55 0 min 0,000 mm 0,6 UV-I 97 W/m 2,5 C 4,3 C 14,5 km/h (3 Bft)
15.03.2015 12:05 4,3 C 89 % 1025,9 hPa 0,0 l/m 4,8 km/h (1 Bft) N 5 0 min 0,050 mm 0,6 UV-I 110 W/m 2,7 C 4,3 C 16,1 km/h (3 Bft)
15.03.2015 12:10 4,4 C 89 % 1025,9 hPa 0,0 l/m 3,4 km/h (1 Bft) N-NO 33 0 min 0,000 mm 0,6 UV-I 107 W/m 2,7 C 4,4 C 8,0 km/h (2 Bft)
15.03.2015 12:15 4,5 C 89 % 1025,9 hPa 0,0 l/m 2,6 km/h (1 Bft) NO 44 0 min 0,000 mm 0,6 UV-I 112 W/m 2,8 C 4,5 C 11,3 km/h (2 Bft)
15.03.2015 12:20 4,6 C 88 % 1025,8 hPa 0,0 l/m 2,4 km/h (1 Bft) O-NO 63 0 min 0,000 mm 0,6 UV-I 106 W/m 2,8 C 4,6 C 8,0 km/h (2 Bft)
15.03.2015 12:25 4,7 C 89 % 1025,8 hPa 0,0 l/m 2,1 km/h (1 Bft) O-NO 65 0 min 0,000 mm 0,8 UV-I 151 W/m 3,0 C 4,7 C 8,0 km/h (2 Bft)
15.03.2015 12:30 4,7 C 88 % 1025,8 hPa 0,0 l/m 4,9 km/h (1 Bft) O-NO 59 0 min 0,000 mm 0,8 UV-I 139 W/m 2,9 C 4,7 C 11,3 km/h (2 Bft)
15.03.2015 12:35 4,8 C 87 % 1025,8 hPa 0,0 l/m 5,0 km/h (1 Bft) NO 46 0 min 0,000 mm 0,7 UV-I 125 W/m 2,8 C 4,8 C 16,1 km/h (3 Bft)
15.03.2015 12:40 4,8 C 87 % 1025,8 hPa 0,0 l/m 3,6 km/h (1 Bft) NO 45 0 min 0,000 mm 0,7 UV-I 120 W/m 2,8 C 4,8 C 11,3 km/h (2 Bft)
15.03.2015 12:45 4,9 C 87 % 1025,7 hPa 0,0 l/m 3,5 km/h (1 Bft) NO 44 0 min 0,000 mm 0,6 UV-I 113 W/m 2,9 C 4,9 C 8,0 km/h (2 Bft)
15.03.2015 12:50 5,0 C 87 % 1025,6 hPa 0,0 l/m 2,2 km/h (1 Bft) NO 52 0 min 0,000 mm 0,8 UV-I 144 W/m 3,0 C 5,0 C 8,0 km/h (2 Bft)
15.03.2015 12:55 5,0 C 86 % 1025,6 hPa 0,0 l/m 7,0 km/h (2 Bft) NO 49 0 min 0,000 mm 0,8 UV-I 145 W/m 2,9 C 4,5 C 17,7 km/h (3 Bft)
15.03.2015 13:00 5,1 C 86 % 1025,5 hPa 0,0 l/m 5,6 km/h (1 Bft) O-NO 60 0 min 0,000 mm 0,7 UV-I 110 W/m 3,0 C 5,1 C 14,5 km/h (3 Bft)
15.03.2015 13:05 5,1 C 86 % 1025,5 hPa 0,0 l/m 4,5 km/h (1 Bft) O-NO 58 0 min 0,051 mm 0,5 UV-I 77 W/m 3,0 C 5,1 C 9,7 km/h (2 Bft)
15.03.2015 13:10 5,1 C 86 % 1025,5 hPa 0,0 l/m 2,5 km/h (1 Bft) N 360 0 min 0,000 mm 0,2 UV-I 59 W/m 3,0 C 5,1 C 9,7 km/h (2 Bft)
15.03.2015 13:15 5,1 C 86 % 1025,5 hPa 0,0 l/m 1,9 km/h (1 Bft) O-NO 66 0 min 0,000 mm 0,0 UV-I 51 W/m 3,0 C 5,1 C 6,4 km/h (2 Bft)
15.03.2015 13:20 5,0 C 86 % 1025,4 hPa 0,0 l/m 3,4 km/h (1 Bft) N 11 0 min 0,000 mm 0,2 UV-I 65 W/m 2,9 C 5,0 C 11,3 km/h (2 Bft)
15.03.2015 13:25 5,1 C 86 % 1025,4 hPa 0,0 l/m 2,8 km/h (1 Bft) O-NO 60 0 min 0,000 mm 0,6 UV-I 90 W/m 3,0 C 5,1 C 14,5 km/h (3 Bft)
15.03.2015 13:30 5,1 C 85 % 1025,4 hPa 0,0 l/m 7,8 km/h (2 Bft) NO 42 0 min 0,000 mm 0,7 UV-I 106 W/m 2,8 C 3,9 C 16,1 km/h (3 Bft)
15.03.2015 13:35 5,1 C 85 % 1025,4 hPa 0,0 l/m 7,7 km/h (2 Bft) O-NO 59 0 min 0,000 mm 0,6 UV-I 100 W/m 2,8 C 4,0 C 16,1 km/h (3 Bft)
15.03.2015 13:40 5,0 C 85 % 1025,4 hPa 0,0 l/m 7,9 km/h (2 Bft) NO 44 0 min 0,000 mm 0,6 UV-I 93 W/m 2,7 C 3,7 C 17,7 km/h (3 Bft)
15.03.2015 13:45 5,1 C 85 % 1025,3 hPa 0,0 l/m 5,7 km/h (1 Bft) NO 51 0 min 0,000 mm 0,6 UV-I 95 W/m 2,8 C 5,1 C 14,5 km/h (3 Bft)
15.03.2015 13:50 5,1 C 86 % 1025,3 hPa 0,0 l/m 3,3 km/h (1 Bft) O-NO 67 0 min 0,000 mm 0,5 UV-I 80 W/m 3,0 C 5,1 C 9,7 km/h (2 Bft)
15.03.2015 13:55 5,1 C 85 % 1025,3 hPa 0,0 l/m 2,6 km/h (1 Bft) O-NO 69 0 min 0,000 mm 0,6 UV-I 97 W/m 2,8 C 5,1 C 11,3 km/h (2 Bft)
15.03.2015 14:00 5,2 C 85 % 1025,3 hPa 0,0 l/m 2,6 km/h (1 Bft) NO 51 0 min 0,000 mm 0,5 UV-I 86 W/m 2,9 C 5,2 C 8,0 km/h (2 Bft)
15.03.2015 14:05 5,2 C 86 % 1025,3 hPa 0,0 l/m 1,6 km/h (1 Bft) NO 55 0 min 0,051 mm 0,5 UV-I 75 W/m 3,1 C 5,2 C 4,8 km/h (1 Bft)
15.03.2015 14:10 5,2 C 85 % 1025,3 hPa 0,0 l/m 1,6 km/h (1 Bft) O-NO 62 0 min 0,000 mm 0,4 UV-I 73 W/m 2,9 C 5,2 C 6,4 km/h (2 Bft)
15.03.2015 14:15 5,3 C 86 % 1025,3 hPa 0,0 l/m 1,6 km/h (1 Bft) NO 55 0 min 0,000 mm 0,5 UV-I 84 W/m 3,2 C 5,3 C 6,4 km/h (2 Bft)
15.03.2015 14:20 5,3 C 87 % 1025,3 hPa 0,0 l/m 0,7 km/h (0 Bft) O-NO 63 0 min 0,000 mm 0,5 UV-I 83 W/m 3,3 C 5,3 C 4,8 km/h (1 Bft)
15.03.2015 14:25 5,3 C 87 % 1025,3 hPa 0,0 l/m 1,1 km/h (1 Bft) NO 54 0 min 0,000 mm 0,7 UV-I 142 W/m 3,3 C 5,3 C 6,4 km/h (2 Bft)
15.03.2015 14:29 5,4 C 87 % 1025,3 hPa 0,0 l/m 3,0 km/h (1 Bft) N-NO 28 0 min 0,000 mm 0,7 UV-I 155 W/m 3,4 C 5,4 C 12,9 km/h (3 Bft)
15.03.2015 14:30 5,4 C 87 % 1025,3 hPa 0,0 l/m 4,4 km/h (1 Bft) N-NO 27 0 min 0,000 mm 0,6 UV-I 114 W/m 3,4 C 5,4 C 4,8 km/h (1 Bft)
15.03.2015 14:35 5,4 C 86 % 1025,2 hPa 0,0 l/m 3,4 km/h (1 Bft) O-NO 74 0 min 0,000 mm 0,5 UV-I 103 W/m 3,3 C 5,4 C 11,3 km/h (2 Bft)
15.03.2015 14:40 5,4 C 87 % 1025,2 hPa 0,0 l/m 2,4 km/h (1 Bft) O-NO 59 0 min 0,000 mm 0,7 UV-I 142 W/m 3,4 C 5,4 C 6,4 km/h (2 Bft)
15.03.2015 14:45 5,3 C 87 % 1025,2 hPa 0,0 l/m 3,7 km/h (1 Bft) NO 39 0 min 0,000 mm 0,7 UV-I 144 W/m 3,3 C 5,3 C 12,9 km/h (3 Bft)
15.03.2015 14:50 5,3 C 87 % 1025,2 hPa 0,0 l/m 2,7 km/h (1 Bft) NO 44 0 min 0,000 mm 0,7 UV-I 141 W/m 3,3 C 5,3 C 11,3 km/h (2 Bft)
15.03.2015 14:55 5,4 C 87 % 1025,1 hPa 0,0 l/m 4,7 km/h (1 Bft) N-NO 19 0 min 0,000 mm 0,7 UV-I 138 W/m 3,4 C 5,4 C 11,3 km/h (2 Bft)
15.03.2015 15:00 5,4 C 86 % 1025,1 hPa 0,0 l/m 3,1 km/h (1 Bft) NO 35 0 min 0,051 mm 0,6 UV-I 104 W/m 3,3 C 5,4 C 12,9 km/h (3 Bft)
15.03.2015 15:05 5,3 C 86 % 1025,0 hPa 0,0 l/m 4,1 km/h (1 Bft) NO 55 0 min 0,000 mm 0,5 UV-I 86 W/m 3,2 C 5,3 C 11,3 km/h (2 Bft)
15.03.2015 15:10 5,3 C 85 % 1025,0 hPa 0,0 l/m 3,9 km/h (1 Bft) N-NO 13 0 min 0,000 mm 0,7 UV-I 138 W/m 3,0 C 5,3 C 12,9 km/h (3 Bft)
15.03.2015 15:15 5,4 C 85 % 1025,0 hPa 0,0 l/m 2,4 km/h (1 Bft) O 88 0 min 0,000 mm 0,7 UV-I 153 W/m 3,1 C 5,4 C 11,3 km/h (2 Bft)
15.03.2015 15:20 5,5 C 86 % 1025,1 hPa 0,0 l/m 3,5 km/h (1 Bft) O-SO 102 0 min 0,000 mm 0,6 UV-I 119 W/m 3,3 C 5,5 C 8,0 km/h (2 Bft)
15.03.2015 15:25 5,5 C 85 % 1025,0 hPa 0,0 l/m 3,9 km/h (1 Bft) NO 56 0 min 0,000 mm 0,5 UV-I 95 W/m 3,2 C 5,5 C 12,9 km/h (3 Bft)
15.03.2015 15:30 5,5 C 85 % 1025,0 hPa 0,0 l/m 6,5 km/h (2 Bft) N-NO 29 0 min 0,000 mm 0,5 UV-I 92 W/m 3,2 C 5,4 C 14,5 km/h (3 Bft)
15.03.2015 15:35 5,4 C 83 % 1025,0 hPa 0,0 l/m 5,8 km/h (2 Bft) NO 54 0 min 0,000 mm 0,2 UV-I 79 W/m 2,7 C 5,4 C 14,5 km/h (3 Bft)
15.03.2015 15:40 5,4 C 84 % 1025,0 hPa 0,0 l/m 3,2 km/h (1 Bft) NO 53 0 min 0,000 mm 0,3 UV-I 84 W/m 2,9 C 5,4 C 12,9 km/h (3 Bft)
15.03.2015 15:45 5,4 C 84 % 1025,0 hPa 0,0 l/m 5,2 km/h (1 Bft) O-NO 65 0 min 0,000 mm 0,0 UV-I 71 W/m 2,9 C 5,4 C 17,7 km/h (3 Bft)
15.03.2015 15:50 5,3 C 84 % 1025,0 hPa 0,0 l/m 6,5 km/h (2 Bft) O-NO 63 0 min 0,000 mm 0,0 UV-I 53 W/m 2,8 C 5,2 C 16,1 km/h (3 Bft)
15.03.2015 15:55 5,3 C 84 % 1024,9 hPa 0,0 l/m 4,2 km/h (1 Bft) O-NO 60 0 min 0,000 mm 0,0 UV-I 39 W/m 2,8 C 5,3 C 11,3 km/h (2 Bft)
15.03.2015 16:00 5,3 C 84 % 1025,0 hPa 0,0 l/m 2,7 km/h (1 Bft) N 5 0 min 0,051 mm 0,0 UV-I 31 W/m 2,8 C 5,3 C 9,7 km/h (2 Bft)
15.03.2015 16:05 5,3 C 85 % 1024,9 hPa 0,0 l/m 2,4 km/h (1 Bft) O 83 0 min 0,000 mm 0,0 UV-I 28 W/m 3,0 C 5,3 C 9,7 km/h (2 Bft)
15.03.2015 16:10 5,2 C 84 % 1024,9 hPa 0,0 l/m 2,4 km/h (1 Bft) O-NO 63 0 min 0,000 mm 0,0 UV-I 28 W/m 2,7 C 5,2 C 8,0 km/h (2 Bft)
15.03.2015 16:15 5,2 C 85 % 1024,9 hPa 0,0 l/m 4,5 km/h (1 Bft) O-NO 64 0 min 0,000 mm 0,0 UV-I 21 W/m 2,9 C 5,2 C 12,9 km/h (3 Bft)
15.03.2015 16:20 5,1 C 85 % 1024,9 hPa 0,0 l/m 2,5 km/h (1 Bft) O-NO 70 0 min 0,000 mm 0,0 UV-I 21 W/m 2,8 C 5,1 C 8,0 km/h (2 Bft)
15.03.2015 16:25 5,1 C 85 % 1024,9 hPa 0,0 l/m 2,3 km/h (1 Bft) O-NO 63 0 min 0,000 mm 0,0 UV-I 15 W/m 2,8 C 5,1 C 6,4 km/h (2 Bft)
15.03.2015 16:30 5,0 C 85 % 1024,9 hPa 0,0 l/m 2,9 km/h (1 Bft) O-NO 61 0 min 0,000 mm 0,0 UV-I 11 W/m 2,7 C 5,0 C 12,9 km/h (3 Bft)
15.03.2015 16:35 4,9 C 85 % 1024,9 hPa 0,0 l/m 1,0 km/h (0 Bft) O-NO 74 0 min 0,000 mm 0,0 UV-I 9 W/m 2,6 C 4,9 C 11,3 km/h (2 Bft)
15.03.2015 16:40 4,9 C 85 % 1024,9 hPa 0,0 l/m 1,7 km/h (1 Bft) NO 48 0 min 0,000 mm 0,0 UV-I 8 W/m 2,6 C 4,9 C 4,8 km/h (1 Bft)
15.03.2015 16:45 4,9 C 86 % 1024,9 hPa 0,0 l/m 2,1 km/h (1 Bft) N-NO 23 0 min 0,000 mm 0,0 UV-I 10 W/m 2,8 C 4,9 C 8,0 km/h (2 Bft)
15.03.2015 16:50 4,9 C 85 % 1024,9 hPa 0,0 l/m 2,9 km/h (1 Bft) O-NO 71 0 min 0,000 mm 0,0 UV-I 12 W/m 2,6 C 4,9 C 12,9 km/h (3 Bft)
15.03.2015 16:55 4,9 C 85 % 1024,8 hPa 0,0 l/m 2,5 km/h (1 Bft) O-NO 59 0 min 0,000 mm 0,0 UV-I 8 W/m 2,6 C 4,9 C 8,0 km/h (2 Bft)
15.03.2015 17:00 4,8 C 85 % 1024,9 hPa 0,0 l/m 2,0 km/h (1 Bft) O 79 0 min 0,000 mm 0,0 UV-I 5 W/m 2,5 C 4,8 C 8,0 km/h (2 Bft)
15.03.2015 17:05 4,8 C 85 % 1024,8 hPa 0,0 l/m 4,9 km/h (1 Bft) O-NO 64 0 min 0,000 mm 0,0 UV-I 4 W/m 2,5 C 4,8 C 14,5 km/h (3 Bft)
15.03.2015 17:10 4,8 C 85 % 1024,9 hPa 0,0 l/m 3,4 km/h (1 Bft) O-NO 72 0 min 0,000 mm 0,0 UV-I 0 W/m 2,5 C 4,8 C 6,4 km/h (2 Bft)
15.03.2015 17:15 4,8 C 85 % 1024,9 hPa 0,0 l/m 4,0 km/h (1 Bft) NO 37 0 min 0,000 mm 0,0 UV-I 8 W/m 2,5 C 4,8 C 9,7 km/h (2 Bft)
15.03.2015 17:20 4,8 C 86 % 1024,8 hPa 0,0 l/m 2,1 km/h (1 Bft) O-NO 59 0 min 0,000 mm 0,0 UV-I 10 W/m 2,7 C 4,8 C 6,4 km/h (2 Bft)
15.03.2015 17:25 4,8 C 86 % 1024,8 hPa 0,0 l/m 1,2 km/h (1 Bft) NO 49 0 min 0,000 mm 0,0 UV-I 5 W/m 2,7 C 4,8 C 6,4 km/h (2 Bft)
15.03.2015 17:30 4,7 C 86 % 1024,8 hPa 0,0 l/m 1,5 km/h (1 Bft) N-NO 32 0 min 0,000 mm 0,0 UV-I 0 W/m 2,6 C 4,7 C 8,0 km/h (2 Bft)
15.03.2015 17:35 4,7 C 86 % 1024,8 hPa 0,0 l/m 0,6 km/h (0 Bft) N-NW 335 0 min 0,000 mm 0,0 UV-I 0 W/m 2,6 C 4,7 C 6,4 km/h (2 Bft)
15.03.2015 17:40 4,7 C 86 % 1024,8 hPa 0,0 l/m 3,7 km/h (1 Bft) NO 55 0 min 0,000 mm 0,0 UV-I 0 W/m 2,6 C 4,7 C 9,7 km/h (2 Bft)
15.03.2015 17:45 4,7 C 85 % 1024,8 hPa 0,0 l/m 6,2 km/h (2 Bft) O-NO 59 0 min 0,000 mm 0,0 UV-I 0 W/m 2,4 C 4,7 C 12,9 km/h (3 Bft)
15.03.2015 17:50 4,7 C 85 % 1024,9 hPa 0,0 l/m 0,7 km/h (0 Bft) O-NO 67 0 min 0,000 mm 0,0 UV-I 5 W/m 2,4 C 4,7 C 4,8 km/h (1 Bft)
15.03.2015 17:55 4,7 C 85 % 1024,9 hPa 0,0 l/m 3,0 km/h (1 Bft) N-NO 22 0 min 0,000 mm 0,0 UV-I 5 W/m 2,4 C 4,7 C 12,9 km/h (3 Bft)
15.03.2015 18:00 4,7 C 85 % 1024,9 hPa 0,0 l/m 2,7 km/h (1 Bft) NO 34 0 min 0,000 mm 0,0 UV-I 5 W/m 2,4 C 4,7 C 8,0 km/h (2 Bft)
15.03.2015 18:05 4,7 C 85 % 1024,9 hPa 0,0 l/m 4,2 km/h (1 Bft) O-NO 59 0 min 0,000 mm 0,0 UV-I 3 W/m 2,4 C 4,7 C 14,5 km/h (3 Bft)
15.03.2015 18:10 4,7 C 84 % 1025,0 hPa 0,0 l/m 5,7 km/h (1 Bft) O-NO 63 0 min 0,000 mm 0,0 UV-I 0 W/m 2,2 C 4,7 C 12,9 km/h (3 Bft)
15.03.2015 18:15 4,7 C 85 % 1024,9 hPa 0,0 l/m 2,9 km/h (1 Bft) O-NO 58 0 min 0,000 mm 0,0 UV-I 0 W/m 2,4 C 4,7 C 12,9 km/h (3 Bft)
15.03.2015 18:20 4,7 C 85 % 1024,9 hPa 0,0 l/m 0,3 km/h (0 Bft) NO 56 0 min 0,000 mm 0,0 UV-I 0 W/m 2,4 C 4,7 C 4,8 km/h (1 Bft)
15.03.2015 18:25 4,6 C 85 % 1024,9 hPa 0,0 l/m 1,4 km/h (1 Bft) O-NO 58 0 min 0,000 mm 0,0 UV-I 0 W/m 2,3 C 4,6 C 11,3 km/h (2 Bft)
15.03.2015 18:30 4,6 C 84 % 1024,9 hPa 0,0 l/m 2,6 km/h (1 Bft) NO 37 0 min 0,000 mm 0,0 UV-I 0 W/m 2,1 C 4,6 C 9,7 km/h (2 Bft)
15.03.2015 18:35 4,6 C 84 % 1024,9 hPa 0,0 l/m 2,6 km/h (1 Bft) NO 56 0 min 0,000 mm 0,0 UV-I 0 W/m 2,1 C 4,6 C 11,3 km/h (2 Bft)
15.03.2015 18:40 4,6 C 84 % 1024,9 hPa 0,0 l/m 0,6 km/h (0 Bft) NO 46 0 min 0,000 mm 0,0 UV-I 0 W/m 2,1 C 4,6 C 3,2 km/h (1 Bft)
15.03.2015 18:45 4,6 C 84 % 1024,8 hPa 0,0 l/m 1,6 km/h (1 Bft) O-NO 59 0 min 0,000 mm 0,0 UV-I 0 W/m 2,1 C 4,6 C 11,3 km/h (2 Bft)
15.03.2015 18:50 4,6 C 84 % 1024,9 hPa 0,0 l/m 2,4 km/h (1 Bft) NO 45 0 min 0,000 mm 0,0 UV-I 0 W/m 2,1 C 4,6 C 11,3 km/h (2 Bft)
15.03.2015 18:55 4,6 C 84 % 1024,9 hPa 0,0 l/m 4,1 km/h (1 Bft) NO 47 0 min 0,000 mm 0,0 UV-I 0 W/m 2,1 C 4,6 C 12,9 km/h (3 Bft)
15.03.2015 19:00 4,6 C 84 % 1024,9 hPa 0,0 l/m 1,8 km/h (1 Bft) O-NO 59 0 min 0,000 mm 0,0 UV-I 0 W/m 2,1 C 4,6 C 6,4 km/h (2 Bft)
15.03.2015 19:05 4,6 C 84 % 1024,9 hPa 0,0 l/m 1,1 km/h (1 Bft) O-NO 65 0 min 0,000 mm 0,0 UV-I 0 W/m 2,1 C 4,6 C 4,8 km/h (1 Bft)
15.03.2015 19:10 4,5 C 84 % 1024,9 hPa 0,0 l/m 0,2 km/h (0 Bft) N-NO 29 0 min 0,000 mm 0,0 UV-I 0 W/m 2,0 C 4,5 C 3,2 km/h (1 Bft)
15.03.2015 19:15 4,4 C 85 % 1025,0 hPa 0,0 l/m 1,9 km/h (1 Bft) O-NO 58 0 min 0,000 mm 0,0 UV-I 0 W/m 2,1 C 4,4 C 8,0 km/h (2 Bft)
15.03.2015 19:20 4,4 C 85 % 1024,9 hPa 0,0 l/m 0,2 km/h (0 Bft) O-NO 58 0 min 0,000 mm 0,0 UV-I 0 W/m 2,1 C 4,4 C 3,2 km/h (1 Bft)
15.03.2015 19:25 4,4 C 85 % 1024,9 hPa 0,0 l/m 0,9 km/h (0 Bft) NO 56 0 min 0,000 mm 0,0 UV-I 0 W/m 2,1 C 4,4 C 3,2 km/h (1 Bft)
15.03.2015 19:30 4,3 C 85 % 1024,9 hPa 0,0 l/m 0,1 km/h (0 Bft) NO 55 0 min 0,000 mm 0,0 UV-I 0 W/m 2,0 C 4,3 C 1,6 km/h (1 Bft)
15.03.2015 19:35 4,3 C 85 % 1024,9 hPa 0,0 l/m 0,5 km/h (0 Bft) O-NO 63 0 min 0,000 mm 0,0 UV-I 0 W/m 2,0 C 4,3 C 6,4 km/h (2 Bft)
15.03.2015 19:40 4,3 C 85 % 1024,9 hPa 0,0 l/m 1,0 km/h (0 Bft) NO 51 0 min 0,000 mm 0,0 UV-I 0 W/m 2,0 C 4,3 C 4,8 km/h (1 Bft)
15.03.2015 19:45 4,3 C 86 % 1025,0 hPa 0,0 l/m 0,5 km/h (0 Bft) O-NO 70 0 min 0,000 mm 0,0 UV-I 0 W/m 2,2 C 4,3 C 3,2 km/h (1 Bft)
15.03.2015 19:50 4,2 C 86 % 1025,0 hPa 0,0 l/m 2,9 km/h (1 Bft) NO 55 0 min 0,000 mm 0,0 UV-I 0 W/m 2,1 C 4,2 C 11,3 km/h (2 Bft)
15.03.2015 19:55 4,2 C 86 % 1024,9 hPa 0,0 l/m 0,4 km/h (0 Bft) O-NO 78 0 min 0,000 mm 0,0 UV-I 0 W/m 2,1 C 4,2 C 3,2 km/h (1 Bft)
15.03.2015 20:00 4,2 C 86 % 1024,9 hPa 0,0 l/m 2,0 km/h (1 Bft) O-NO 59 0 min 0,000 mm 0,0 UV-I 0 W/m 2,1 C 4,2 C 4,8 km/h (1 Bft)
15.03.2015 20:05 4,2 C 86 % 1024,9 hPa 0,0 l/m 0,3 km/h (0 Bft) O-NO 67 0 min 0,000 mm 0,0 UV-I 0 W/m 2,1 C 4,2 C 3,2 km/h (1 Bft)
15.03.2015 20:10 4,2 C 87 % 1024,8 hPa 0,0 l/m 0,4 km/h (0 Bft) NO 42 0 min 0,000 mm 0,0 UV-I 0 W/m 2,2 C 4,2 C 3,2 km/h (1 Bft)
15.03.2015 20:15 4,2 C 87 % 1024,9 hPa 0,0 l/m 1,2 km/h (1 Bft) O 85 0 min 0,000 mm 0,0 UV-I 0 W/m 2,2 C 4,2 C 4,8 km/h (1 Bft)
15.03.2015 20:20 4,2 C 87 % 1024,9 hPa 0,0 l/m 1,3 km/h (1 Bft) O 95 0 min 0,000 mm 0,0 UV-I 0 W/m 2,2 C 4,2 C 4,8 km/h (1 Bft)
15.03.2015 20:25 4,2 C 87 % 1024,9 hPa 0,0 l/m 5,4 km/h (1 Bft) O-NO 65 0 min 0,000 mm 0,0 UV-I 0 W/m 2,2 C 4,2 C 12,9 km/h (3 Bft)
15.03.2015 20:30 4,2 C 87 % 1024,9 hPa 0,0 l/m 4,6 km/h (1 Bft) NO 51 0 min 0,000 mm 0,0 UV-I 0 W/m 2,2 C 4,2 C 11,3 km/h (2 Bft)
15.03.2015 20:35 4,2 C 87 % 1024,9 hPa 0,0 l/m 4,0 km/h (1 Bft) N-NO 32 0 min 0,000 mm 0,0 UV-I 0 W/m 2,2 C 4,2 C 11,3 km/h (2 Bft)
15.03.2015 20:40 4,2 C 87 % 1024,9 hPa 0,0 l/m 3,3 km/h (1 Bft) O-NO 66 0 min 0,000 mm 0,0 UV-I 0 W/m 2,2 C 4,2 C 9,7 km/h (2 Bft)
15.03.2015 20:45 4,1 C 87 % 1024,9 hPa 0,0 l/m 3,8 km/h (1 Bft) NO 42 0 min 0,000 mm 0,0 UV-I 0 W/m 2,1 C 4,1 C 9,7 km/h (2 Bft)
15.03.2015 20:50 4,1 C 87 % 1024,9 hPa 0,0 l/m 4,0 km/h (1 Bft) O-NO 59 0 min 0,000 mm 0,0 UV-I 0 W/m 2,1 C 4,1 C 12,9 km/h (3 Bft)
15.03.2015 20:55 4,0 C 87 % 1024,9 hPa 0,0 l/m 3,0 km/h (1 Bft) NO 48 0 min 0,000 mm 0,0 UV-I 0 W/m 2,0 C 4,0 C 8,0 km/h (2 Bft)
15.03.2015 21:00 4,0 C 87 % 1025,0 hPa 0,0 l/m 4,1 km/h (1 Bft) NO 40 0 min 0,000 mm 0,0 UV-I 0 W/m 2,0 C 4,0 C 16,1 km/h (3 Bft)
15.03.2015 21:05 4,1 C 87 % 1025,0 hPa 0,0 l/m 4,9 km/h (1 Bft) NO 55 0 min 0,000 mm 0,0 UV-I 0 W/m 2,1 C 4,1 C 12,9 km/h (3 Bft)
15.03.2015 21:10 4,1 C 87 % 1025,0 hPa 0,0 l/m 4,9 km/h (1 Bft) O-NO 62 0 min 0,000 mm 0,0 UV-I 0 W/m 2,1 C 4,1 C 9,7 km/h (2 Bft)
15.03.2015 21:15 4,2 C 87 % 1024,9 hPa 0,0 l/m 3,4 km/h (1 Bft) NO 55 0 min 0,000 mm 0,0 UV-I 0 W/m 2,2 C 4,2 C 6,4 km/h (2 Bft)
15.03.2015 21:20 4,2 C 87 % 1025,0 hPa 0,0 l/m 5,5 km/h (1 Bft) O-NO 69 0 min 0,000 mm 0,0 UV-I 0 W/m 2,2 C 4,2 C 12,9 km/h (3 Bft)
15.03.2015 21:25 4,2 C 87 % 1025,0 hPa 0,0 l/m 4,1 km/h (1 Bft) NO 49 0 min 0,000 mm 0,0 UV-I 0 W/m 2,2 C 4,2 C 9,7 km/h (2 Bft)
15.03.2015 21:30 4,3 C 87 % 1025,1 hPa 0,0 l/m 4,6 km/h (1 Bft) O 101 0 min 0,000 mm 0,0 UV-I 0 W/m 2,3 C 4,3 C 12,9 km/h (3 Bft)
15.03.2015 21:35 4,3 C 87 % 1025,1 hPa 0,0 l/m 5,1 km/h (1 Bft) O-NO 77 0 min 0,000 mm 0,0 UV-I 0 W/m 2,3 C 4,3 C 14,5 km/h (3 Bft)
15.03.2015 21:40 4,3 C 87 % 1025,1 hPa 0,0 l/m 4,6 km/h (1 Bft) O-NO 69 0 min 0,000 mm 0,0 UV-I 0 W/m 2,3 C 4,3 C 14,5 km/h (3 Bft)
15.03.2015 21:45 4,3 C 87 % 1025,2 hPa 0,0 l/m 4,6 km/h (1 Bft) O-NO 67 0 min 0,000 mm 0,0 UV-I 0 W/m 2,3 C 4,3 C 12,9 km/h (3 Bft)
15.03.2015 21:50 4,4 C 86 % 1025,2 hPa 0,0 l/m 3,6 km/h (1 Bft) NO 56 0 min 0,000 mm 0,0 UV-I 0 W/m 2,3 C 4,4 C 8,0 km/h (2 Bft)
15.03.2015 21:55 4,4 C 86 % 1025,2 hPa 0,0 l/m 4,5 km/h (1 Bft) NO 41 0 min 0,000 mm 0,0 UV-I 0 W/m 2,3 C 4,4 C 9,7 km/h (2 Bft)
15.03.2015 22:00 4,4 C 86 % 1025,3 hPa 0,0 l/m 7,9 km/h (2 Bft) O-NO 63 0 min 0,000 mm 0,0 UV-I 0 W/m 2,3 C 3,1 C 17,7 km/h (3 Bft)
15.03.2015 22:05 4,5 C 86 % 1025,3 hPa 0,0 l/m 5,4 km/h (1 Bft) O-NO 59 0 min 0,000 mm 0,0 UV-I 0 W/m 2,4 C 4,5 C 14,5 km/h (3 Bft)
15.03.2015 22:10 4,4 C 86 % 1025,2 hPa 0,0 l/m 6,1 km/h (2 Bft) NO 54 0 min 0,000 mm 0,0 UV-I 0 W/m 2,3 C 4,4 C 14,5 km/h (3 Bft)
15.03.2015 22:15 4,4 C 85 % 1025,2 hPa 0,0 l/m 7,2 km/h (2 Bft) O 84 0 min 0,000 mm 0,0 UV-I 0 W/m 2,1 C 3,7 C 14,5 km/h (3 Bft)
15.03.2015 22:20 4,4 C 85 % 1025,2 hPa 0,0 l/m 4,5 km/h (1 Bft) NO 44 0 min 0,000 mm 0,0 UV-I 0 W/m 2,1 C 4,4 C 12,9 km/h (3 Bft)
15.03.2015 22:25 4,3 C 85 % 1025,2 hPa 0,0 l/m 6,3 km/h (2 Bft) O-NO 75 0 min 0,000 mm 0,0 UV-I 0 W/m 2,0 C 4,3 C 12,9 km/h (3 Bft)
15.03.2015 22:30 4,2 C 85 % 1025,1 hPa 0,0 l/m 3,0 km/h (1 Bft) O-NO 71 0 min 0,000 mm 0,0 UV-I 0 W/m 1,9 C 4,2 C 8,0 km/h (2 Bft)
15.03.2015 22:35 4,2 C 85 % 1025,2 hPa 0,0 l/m 5,6 km/h (1 Bft) O-NO 61 0 min 0,000 mm 0,0 UV-I 0 W/m 1,9 C 4,2 C 16,1 km/h (3 Bft)
15.03.2015 22:40 4,1 C 85 % 1025,1 hPa 0,0 l/m 5,9 km/h (2 Bft) NO 52 0 min 0,000 mm 0,0 UV-I 0 W/m 1,8 C 4,1 C 11,3 km/h (2 Bft)
15.03.2015 22:45 4,1 C 86 % 1025,1 hPa 0,0 l/m 4,0 km/h (1 Bft) N-NO 19 0 min 0,000 mm 0,0 UV-I 0 W/m 2,0 C 4,1 C 8,0 km/h (2 Bft)
15.03.2015 22:50 4,1 C 86 % 1025,0 hPa 0,0 l/m 5,3 km/h (1 Bft) O-NO 69 0 min 0,000 mm 0,0 UV-I 0 W/m 2,0 C 4,1 C 12,9 km/h (3 Bft)
15.03.2015 22:55 4,0 C 86 % 1025,1 hPa 0,0 l/m 3,3 km/h (1 Bft) O-NO 72 0 min 0,000 mm 0,0 UV-I 0 W/m 1,9 C 4,0 C 14,5 km/h (3 Bft)
15.03.2015 23:00 4,0 C 85 % 1025,0 hPa 0,0 l/m 4,9 km/h (1 Bft) O-NO 59 0 min 0,000 mm 0,0 UV-I 0 W/m 1,7 C 4,0 C 14,5 km/h (3 Bft)
15.03.2015 23:05 4,1 C 85 % 1025,0 hPa 0,0 l/m 7,4 km/h (2 Bft) O-NO 73 0 min 0,000 mm 0,0 UV-I 0 W/m 1,8 C 3,2 C 17,7 km/h (3 Bft)
15.03.2015 23:10 4,0 C 85 % 1024,9 hPa 0,0 l/m 5,6 km/h (1 Bft) O-NO 67 0 min 0,000 mm 0,0 UV-I 0 W/m 1,7 C 4,0 C 14,5 km/h (3 Bft)
15.03.2015 23:15 3,9 C 85 % 1025,0 hPa 0,0 l/m 6,3 km/h (2 Bft) O-NO 63 0 min 0,000 mm 0,0 UV-I 0 W/m 1,6 C 3,9 C 14,5 km/h (3 Bft)
15.03.2015 23:20 3,9 C 85 % 1024,9 hPa 0,0 l/m 7,5 km/h (2 Bft) O-NO 57 0 min 0,000 mm 0,0 UV-I 0 W/m 1,6 C 2,9 C 14,5 km/h (3 Bft)
15.03.2015 23:25 3,8 C 85 % 1024,8 hPa 0,0 l/m 8,0 km/h (2 Bft) O-NO 57 0 min 0,000 mm 0,0 UV-I 0 W/m 1,5 C 2,3 C 20,9 km/h (4 Bft)
15.03.2015 23:30 3,7 C 85 % 1024,8 hPa 0,0 l/m 3,1 km/h (1 Bft) O-NO 76 0 min 0,000 mm 0,0 UV-I 0 W/m 1,4 C 3,7 C 9,7 km/h (2 Bft)
15.03.2015 23:35 3,6 C 85 % 1024,9 hPa 0,0 l/m 4,0 km/h (1 Bft) O-SO 115 0 min 0,000 mm 0,0 UV-I 0 W/m 1,3 C 3,6 C 14,5 km/h (3 Bft)
15.03.2015 23:40 3,5 C 85 % 1024,9 hPa 0,0 l/m 1,9 km/h (1 Bft) NO 35 0 min 0,000 mm 0,0 UV-I 0 W/m 1,2 C 3,5 C 6,4 km/h (2 Bft)
15.03.2015 23:45 3,3 C 86 % 1024,9 hPa 0,0 l/m 2,6 km/h (1 Bft) O-NO 62 0 min 0,000 mm 0,0 UV-I 0 W/m 1,2 C 3,3 C 16,1 km/h (3 Bft)
15.03.2015 23:50 3,3 C 86 % 1024,8 hPa 0,0 l/m 3,1 km/h (1 Bft) NO 54 0 min 0,000 mm 0,0 UV-I 0 W/m 1,2 C 3,3 C 11,3 km/h (2 Bft)
15.03.2015 23:55 3,2 C 86 % 1024,8 hPa 0,0 l/m 2,4 km/h (1 Bft) NO 55 0 min 0,000 mm 0,0 UV-I 0 W/m 1,1 C 3,2 C 9,7 km/h (2 Bft)
_ Min-Zeit 06:40 15:35 16:55 - 00:50 - - - - - - 23:55 10:45 00:20
Minimum _ 2,4 C 83 % 1024,8 hPa - 0,0 km/h (0 Bft) - - - - - - 1,1 C 2,1 C 1,6 km/h (1 Bft)
_ Max-Zeit 15:30 06:15 00:00 04:50 10:45 - - 00:00 11:05 11:35 14:29 14:29 15:20 10:55
Maximum _ 5,6 C 93 % 1027,2 hPa 0,2 l/m 8,7 km/h
N-NO (2 Bft)
- - 0 min 0,051 mm 0,8 UV-I 155 W/m 3,4 C 5,5 C 20,9 km/h
O-NO (4 Bft)
Durchschnitt _ 3,8 C 89 % 1025,8 hPa #0,8 l/m 3,0 km/h (1 Bft) NO - #0 min. #0,356 mm 0,6 UV-I 68 W/m 2,1 C 3,8 C 9,9 km/h (2 Bft)